Location: Mat�lon
(46.2791°N, 7.1028°E)
Time: 08:24:46
(UTC+00:00)

N. Korean satellite - Visible Passes

Search period start: 18 September 2021 00:00
Search period end: 28 September 2021 00:00
Orbit: 448 x 499 km, 97.3° (Epoch: 17 September)

Date Brightness Start Highest point End Pass type
(mag) Time Alt. Az. Time Alt. Az. Time Alt. Az.
18 Sep 10.1 03:42:41 10° ENE 03:43:31 11° E 03:44:21 10° ESE visible
20 Sep 8.8 04:18:27 10° NE 04:21:32 29° E 04:24:40 10° SSE visible
21 Sep 9.8 03:51:39 10° ENE 03:53:38 14° E 03:55:36 10° SE visible
23 Sep 8.2 04:28:13 10° NNE 04:31:34 38° E 04:34:55 10° SSE visible
24 Sep 9.6 04:01:05 10° NE 04:03:39 19° E 04:06:13 10° SE visible
26 Sep 7.5 04:38:00 10° NNE 04:41:29 52° E 04:45:00 10° S visible
27 Sep 9.2 04:10:38 10° NE 04:13:36 24° E 04:16:35 10° SSE visible
